Weather History for Montrose, CO

Change the Weather History Date:

Wednesday, June 13, 2012

  Actual Average Record
Temperature  
Mean Temperature 70 °F 68 °F  
Max Temperature 92 °F 84 °F 93 °F (2006)
Min Temperature 48 °F 51 °F 41 °F (2001)
Degree Days  
Heating Degree Days 0 1  
Month to date heating degree days 6 31  
Since 1 June heating degree days 6 31  
Since 1 July heating degree days 5665 6195  
Cooling Degree Days 5 4  
Month to date cooling degree days 67 39  
Year to date cooling degree days 90 56  
Since 1 June cooling degree days 67 39  
Growing Degree Days 20 (Base 50)    
Moisture  
Dew Point 15 °F    
Average Humidity 20    
Maximum Humidity 36    
Minimum Humidity 4    
Precipitation  
Precipitation 0.00 in 0.02 in 0.09 in (2001)
Month to date precipitation 0.00 0.28  
Year to date precipitation 1.56 4.58  
Sea Level Pressure  
Sea Level Pressure 29.73 in    
Wind  
Wind Speed 8 mph (SW)    
Max Wind Speed 22 mph    
Max Gust Speed 29 mph    
Visibility 10 miles    
Events      
T = Trace of Precipitation, MM = Missing Value Source: NWS Daily Summary

Daily Weather History Graph

Daily Weather History Graph

Search for Another Location

Airport:

Trip Planner

Search our weather history database for the weather conditions in past years. The results will help you decide how hot, cold, wet, or windy it might be!

Date:

Astronomy

Jun. 13, 2012 Rise Set
Actual Time 5:46 AM MDT 8:36 PM MDT
Civil Twilight 5:15 AM MDT 9:08 PM MDT
Nautical Twilight 4:35 AM MDT 9:48 PM MDT
Astronomical Twilight 3:49 AM MDT 10:34 PM MDT
Moon 1:58 AM MDT (6/13) 3:28 PM MDT (6/13)
Length of Visible Light 15h 53m
Length of Day
14h 50m
Waning Crescent, 28% of the Moon is Illuminated
Jun 13
Waning Crescent
Jun 19
New
Jun 26
First Quarter
Jul 3
Full
Jul 10
Last Quarter

Hourly Weather History & Observations

Time (MDT) Temp. Dew Point Humidity Pressure Visibility Wind Dir Wind Speed Gust Speed Precip Events Conditions
12:53 AM 61.0 °F 21.0 °F 21% 29.83 in 10.0 mi SE 11.5 mph - N/A   Clear
1:53 AM 60.1 °F 18.0 °F 20% 29.82 in 10.0 mi SE 11.5 mph - N/A   Clear
2:53 AM 59.0 °F 19.0 °F 21% 29.81 in 10.0 mi ESE 11.5 mph - N/A   Clear
3:53 AM 54.0 °F 21.0 °F 28% 29.83 in 10.0 mi South 5.8 mph - N/A   Clear
5:53 AM 48.9 °F 23.0 °F 36% 29.85 in 10.0 mi SSE 6.9 mph - N/A   Clear
6:53 AM 55.9 °F 21.0 °F 26% 29.83 in 10.0 mi SE 5.8 mph - N/A   Clear
7:53 AM 62.1 °F 25.0 °F 24% 29.83 in 10.0 mi Calm Calm - N/A   Clear
8:53 AM 70.0 °F 21.9 °F 16% 29.81 in 10.0 mi Calm Calm - N/A   Clear
9:53 AM 73.9 °F 28.0 °F 18% 29.81 in 10.0 mi NNW 8.1 mph - N/A   Clear
10:53 AM 78.1 °F 25.0 °F 14% 29.79 in 10.0 mi NNW 6.9 mph - N/A   Clear
11:53 AM 84.0 °F 19.9 °F 9% 29.76 in 10.0 mi Variable 3.5 mph - N/A   Clear
12:53 PM 89.1 °F 9.0 °F 5% 29.73 in 10.0 mi West 10.4 mph 17.3 mph N/A   Clear
1:53 PM 89.1 °F 9.0 °F 5% 29.69 in 10.0 mi West 9.2 mph 23.0 mph N/A   Clear
2:53 PM 90.0 °F 8.1 °F 5% 29.67 in 10.0 mi West 8.1 mph 23.0 mph N/A   Clear
3:53 PM 91.0 °F 8.1 °F 4% 29.66 in 10.0 mi West 13.8 mph 21.9 mph N/A   Clear
4:53 PM 91.0 °F 5.0 °F 4% 29.64 in 10.0 mi West 12.7 mph 23.0 mph N/A   Clear
5:53 PM 90.0 °F 7.0 °F 4% 29.64 in 10.0 mi West 13.8 mph - N/A   Clear
6:53 PM 88.0 °F 7.0 °F 5% 29.62 in 10.0 mi WSW 9.2 mph 20.7 mph N/A   Clear
7:53 PM 84.9 °F 6.1 °F 5% 29.61 in 10.0 mi SW 10.4 mph - N/A   Clear
8:53 PM 78.1 °F 10.0 °F 7% 29.62 in 10.0 mi SSW 10.4 mph - N/A   Clear
9:53 PM 73.0 °F 9.0 °F 8% 29.65 in 10.0 mi NNE 5.8 mph - N/A   Clear
10:53 PM 68.0 °F 10.0 °F 11% 29.67 in 10.0 mi ESE 10.4 mph - N/A   Clear
11:53 PM 64.9 °F 10.9 °F 12% 29.67 in 10.0 mi SE 9.2 mph - N/A   Clear